Location: Gleizolles
(44.4833°N, 6.7667°E)
Time: 02:14:20
(UTC+00:00)

Vanguard 1 Rocket - Pass Details

Date: 30 June 2024
Orbit: 650 x 4219 km, 34.3° (Epoch: 15 July)

Event Time Altitude Azimuth Distance (km) Brightness Sun altitude
Rises 03:19:45 0° 271° (W) 5,815 11.1 -5.4°
Reaches altitude 10° 03:23:00 10° 267° (W) 5,188 10.8 -4.9°
Maximum altitude 03:39:20 55° 196° (SSW) 4,103 10.5 -2.6°
Drops below altitude 10° 04:03:54 10° 127° (SE) 7,403 12.3 1.0°
Sets 04:09:46 0° 124° (SE) 8,326 12.7 1.9°
